Home > Weather > Kreuztal > Past weeks

Flag for Germany Past Weather in Kreuztal, North Rhine-Westphalia, Germany — Yesterday and Last 2 Weeks

Now
61 °F

Light rain. Fog.


Feels Like: 61 °F
Forecast: 54 / 67 °F
Wind: 9 mph from Northwest

Location: Koeln / Bonn

Current Time: May 30, 2016 at 7:09:10 AM

Latest Report: May 30, 2016 at 6:20 AM


Visibility: 2 mi

Pressure: 29.59 "Hg

Humidity: 94%

Dew Point: 59 °F

Location of KreuztalLocation

Past Weather in Kreuztal — Graph

°F

Kreuztal Temperature Yesterday

Maximum temperature yesterday: 75 °F (at 1:50 PM)
Minimum temperature yesterday: 57 °F (at 1:50 AM)
Average temperature yesterday: 66 °F

High & Low Weather Summary for the Past Weeks

 TemperatureHumidityPressure
High77 °F (May 28, 4:20 PM)100% (May 23, 3:50 PM)30.12 "Hg (May 23, 3:50 PM)
Low43 °F (May 15, 6:20 AM)34% (May 17, 3:20 PM)29.59 "Hg (May 30, 6:20 AM)
Average58 °F73%29.94 "Hg
* Reported May 15 6:20 AM — May 30 6:20 AM, Kreuztal, Weather by CustomWeather, © 2016

Note: Actual official high and low records may vary slightly from our data, if they occured in-between our weather recording intervals... More about our weather records

Advertising

Kreuztal Weather History for the Previous 24 Hours

Scroll right to see more
 ConditionsComfort  
Time TempWeatherWind HumidityBarometerVisibility
6:20 AM
Mon, May 30
61 °FLight rain. Fog.9 mph94%29.59 "Hg2 mi
5:20 AM59 °FStrong thunderstorms. Fog.6 mph100%29.62 "Hg2 mi
4:50 AM61 °FHeavy rain. Partly cloudy.8 mph94%29.65 "Hg3 mi
4:20 AM61 °FStrong thunderstorms. Partly cloudy.13 mph94%29.62 "Hg2 mi
3:50 AM61 °FThundershowers. Passing clouds.9 mph94%29.65 "Hg5 mi
3:20 AM61 °FRain. Low clouds.12 mph94%29.65 "HgN/A
2:50 AM63 °FOvercast.10 mph88%29.65 "HgN/A
2:20 AM63 °FLight rain. Passing clouds.8 mph88%29.65 "HgN/A
1:50 AM63 °FMostly cloudy.8 mph88%29.68 "HgN/A
1:20 AM63 °FPassing clouds.7 mph88%29.68 "HgN/A
12:50 AM64 °FOvercast.6 mph83%29.68 "HgN/A
12:20 AM63 °FPassing clouds.5 mph94%29.71 "HgN/A
11:50 PM
Sun, May 29
63 °FPassing clouds.6 mph94%29.71 "HgN/A
11:20 PM64 °FLight rain. Clear.7 mph88%29.71 "HgN/A
10:50 PM64 °FPassing clouds.5 mph83%29.71 "HgN/A
10:20 PM64 °FPartly sunny.6 mph88%29.68 "HgN/A
9:50 PM66 °FSprinkles. Broken clouds.6 mph83%29.68 "HgN/A
9:20 PM66 °FSprinkles. Broken clouds.6 mph83%29.68 "HgN/A
8:50 PM68 °FBroken clouds.10 mph78%29.68 "HgN/A
8:20 PM70 °FBroken clouds.10 mph73%29.68 "HgN/A
7:50 PM70 °FScattered clouds.8 mph73%29.68 "HgN/A
7:20 PM70 °FPartly sunny.9 mph73%29.68 "HgN/A
6:50 PM70 °FPartly sunny.9 mph73%29.68 "HgN/A
6:20 PM70 °FBroken clouds.9 mph73%29.68 "HgN/A
5:50 PM72 °FBroken clouds.10 mph69%29.68 "HgN/A
5:20 PM73 °FBroken clouds.12 mph65%29.68 "HgN/A
4:50 PM75 °FScattered showers. Broken clouds.9 mph61%29.68 "HgN/A
4:20 PM72 °FScattered showers. Broken clouds.8 mph65%29.68 "HgN/A
3:50 PM72 °FScattered showers. Broken clouds.7 mph65%29.68 "HgN/A
3:20 PM73 °FBroken clouds.6 mph61%29.68 "HgN/A
2:50 PM73 °FBroken clouds.6 mph57%29.68 "HgN/A
2:20 PM75 °FBroken clouds.7 mph54%29.68 "HgN/A
1:50 PM75 °FScattered clouds.6 mph54%29.68 "HgN/A
1:20 PM72 °FScattered clouds.6 mph57%29.71 "HgN/A
12:50 PM70 °FPartly sunny.7 mph64%29.71 "HgN/A
12:20 PM70 °FBroken clouds.6 mph64%29.71 "HgN/A
11:50 AM70 °FBroken clouds.7 mph69%29.71 "HgN/A
11:20 AM70 °FBroken clouds.8 mph64%29.71 "HgN/A
10:50 AM70 °FBroken clouds.8 mph69%29.71 "HgN/A
10:20 AM68 °FBroken clouds.7 mph73%29.71 "HgN/A
9:50 AM66 °FPartly sunny.5 mph73%29.71 "HgN/A
9:20 AM66 °FPartly sunny.6 mph73%29.71 "HgN/A
8:50 AM66 °FSunny.2 mph73%29.71 "Hg10 mi
8:20 AM64 °FPassing clouds.3 mph73%29.71 "HgN/A
7:50 AM63 °FSunny.2 mph77%29.74 "Hg10 mi
7:20 AM59 °FSunny.2 mph88%29.74 "Hg10 mi
Weather by CustomWeather, © 2016

See weather overviewHow to use our weather pages